Weather History for Waterville, ME

Change the Weather History Date:

Saturday, August 30, 2014

  Actual Average Record
Temperature  
Mean Temperature 60 °F -  
Max Temperature 71 °F 78 °F 90 °F (1973)
Min Temperature 48 °F 53 °F 35 °F (1982)
Degree Days  
Heating Degree Days 6    
Growing Degree Days 10 (Base 50)    
Moisture  
Dew Point 53 °F    
Average Humidity 79    
Maximum Humidity 94    
Minimum Humidity 60    
Precipitation  
Precipitation 0.00 in - - ()
Sea Level Pressure  
Sea Level Pressure 30.16 in    
Wind  
Wind Speed 6 mph (SSW)    
Max Wind Speed 13 mph    
Max Gust Speed 22 mph    
Visibility 10 miles    
Events      
Averages and records for this station are not official NWS values.
T = Trace of Precipitation, MM = Missing Value Source: NWS Daily Summary

Daily Weather History Graph

Daily Weather History Graph

Search for Another Location

Airport:

Trip Planner

Search our weather history database for the weather conditions in past years. The results will help you decide how hot, cold, wet, or windy it might be!

Date:

Astronomy

Aug. 30, 2014 Rise Set
Actual Time 5:58 AM EDT 7:18 PM EDT
Civil Twilight 5:28 AM EDT 7:48 PM EDT
Nautical Twilight 4:52 AM EDT 8:25 PM EDT
Astronomical Twilight 4:13 AM EDT 9:03 PM EDT
Moon 10:55 AM EDT (8/30) 9:37 PM EDT (8/30)
Length of Visible Light 14h 20m
Length of Day
13h 19m
Waxing Crescent, 23% of the Moon is Illuminated
Aug 30
Waxing Crescent
Sep 2
First Quarter
Sep 8
Full
Sep 15
Last Quarter
Sep 24
New

Hourly Weather History & Observations

Time (EDT) Temp. Dew Point Humidity Pressure Visibility Wind Dir Wind Speed Gust Speed Precip Events Conditions
12:15 AM 51.8 °F 50.0 °F 94% 30.22 in 10.0 mi SSW 4.6 mph - N/A   Clear
12:35 AM 51.8 °F 48.2 °F 88% 30.22 in 10.0 mi SSW 4.6 mph - N/A   Clear
12:55 AM 51.8 °F 48.2 °F 88% 30.22 in 10.0 mi SSW 4.6 mph - N/A   Clear
1:15 AM 51.8 °F 48.2 °F 88% 30.23 in 10.0 mi SSW 3.5 mph - N/A   Clear
1:35 AM 51.8 °F 48.2 °F 88% 30.23 in 10.0 mi SSW 3.5 mph - N/A   Clear
1:55 AM 51.8 °F 48.2 °F 88% 30.23 in 10.0 mi SSW 3.5 mph - N/A   Clear
2:15 AM 50.0 °F 48.2 °F 94% 30.23 in 10.0 mi SSW 4.6 mph - N/A   Clear
2:35 AM 50.0 °F 48.2 °F 94% 30.23 in 10.0 mi SSW 5.8 mph - N/A   Partly Cloudy
2:55 AM 50.0 °F 48.2 °F 94% 30.23 in 10.0 mi SSW 4.6 mph - N/A   Partly Cloudy
3:15 AM 50.0 °F 48.2 °F 94% 30.23 in 10.0 mi SSW 5.8 mph - N/A   Clear
3:35 AM 50.0 °F 48.2 °F 94% 30.23 in 10.0 mi SSW 4.6 mph - N/A   Clear
3:55 AM 50.0 °F 48.2 °F 94% 30.23 in 10.0 mi SSW 4.6 mph - N/A   Clear
4:15 AM 50.0 °F 48.2 °F 94% 30.22 in 10.0 mi SSW 4.6 mph - N/A   Clear
4:35 AM 50.0 °F 48.2 °F 94% 30.22 in 10.0 mi SSW 5.8 mph - N/A   Clear
4:55 AM 50.0 °F 48.2 °F 94% 30.22 in 10.0 mi SSW 4.6 mph - N/A   Clear
5:15 AM 50.0 °F 46.4 °F 87% 30.23 in 10.0 mi SSW 4.6 mph - N/A   Clear
5:35 AM 50.0 °F 48.2 °F 94% 30.22 in 10.0 mi SSW 3.5 mph - N/A   Clear
5:55 AM 48.2 °F 46.4 °F 93% 30.23 in 10.0 mi SW 4.6 mph - N/A   Clear
6:15 AM 50.0 °F 48.2 °F 94% 30.23 in 10.0 mi SSW 4.6 mph - N/A   Clear
6:35 AM 51.8 °F 48.2 °F 88% 30.24 in 10.0 mi SSW 5.8 mph - N/A   Clear
6:55 AM 51.8 °F 48.2 °F 88% 30.23 in 10.0 mi SSW 4.6 mph - N/A   Clear
7:15 AM 51.8 °F 50.0 °F 94% 30.23 in 10.0 mi SSW 4.6 mph - N/A   Clear
7:35 AM 53.6 °F 50.0 °F 88% 30.23 in 10.0 mi SSW 4.6 mph - N/A   Clear
7:55 AM 53.6 °F 51.8 °F 94% 30.23 in 10.0 mi South 4.6 mph - N/A   Clear
8:15 AM 55.4 °F 51.8 °F 88% 30.22 in 10.0 mi SSW 4.6 mph - N/A   Clear
8:35 AM 57.2 °F 53.6 °F 88% 30.23 in 10.0 mi SSW 6.9 mph - N/A   Clear
8:55 AM 60.8 °F 55.4 °F 82% 30.22 in 10.0 mi SSW 6.9 mph - N/A   Clear
9:15 AM 60.8 °F 55.4 °F 82% 30.22 in 10.0 mi South 4.6 mph - N/A   Clear
9:35 AM 62.6 °F 57.2 °F 82% 30.22 in 10.0 mi SSW 6.9 mph - N/A   Partly Cloudy
9:55 AM 64.4 °F 57.2 °F 77% 30.21 in 10.0 mi South 5.8 mph - N/A   Partly Cloudy
10:15 AM 64.4 °F 57.2 °F 77% 30.21 in 10.0 mi South 8.1 mph 16.1 mph N/A   Partly Cloudy
10:55 AM 66.2 °F 59.0 °F 78% 30.20 in 10.0 mi SSW 6.9 mph - N/A   Clear
11:15 AM 69.8 °F 57.2 °F 64% 30.20 in 10.0 mi SSW 6.9 mph - N/A   Partly Cloudy
11:35 AM 69.8 °F 59.0 °F 68% 30.19 in 10.0 mi SSW 9.2 mph 16.1 mph N/A   Clear
11:55 AM 69.8 °F 57.2 °F 64% 30.18 in 10.0 mi SSW 12.7 mph - N/A   Clear
12:15 PM 71.6 °F 57.2 °F 60% 30.17 in 10.0 mi South 9.2 mph 17.3 mph N/A   Partly Cloudy
12:35 PM 71.6 °F 57.2 °F 60% 30.17 in 10.0 mi South 9.2 mph 16.1 mph N/A   Mostly Cloudy
12:55 PM 71.6 °F 57.2 °F 60% 30.16 in 10.0 mi SSW 10.4 mph 18.4 mph N/A   Overcast
1:15 PM 71.6 °F 57.2 °F 60% 30.16 in 10.0 mi South 8.1 mph - N/A   Mostly Cloudy
1:35 PM 69.8 °F 57.2 °F 64% 30.15 in 10.0 mi South 10.4 mph 17.3 mph N/A   Mostly Cloudy
1:55 PM 71.6 °F 59.0 °F 64% 30.14 in 10.0 mi South 9.2 mph - N/A   Mostly Cloudy
2:15 PM 71.6 °F 59.0 °F 64% 30.13 in 10.0 mi South 10.4 mph 18.4 mph N/A   Scattered Clouds
2:35 PM 71.6 °F 59.0 °F 64% 30.13 in 10.0 mi South 8.1 mph 17.3 mph N/A   Clear
2:55 PM 71.6 °F 59.0 °F 64% 30.12 in 10.0 mi South 10.4 mph 18.4 mph N/A   Clear
3:15 PM 71.6 °F 57.2 °F 60% 30.11 in 10.0 mi South 9.2 mph 21.9 mph N/A   Partly Cloudy
3:55 PM 69.8 °F 57.2 °F 64% 30.10 in 10.0 mi South 10.4 mph 17.3 mph N/A   Clear
4:15 PM 69.8 °F 59.0 °F 68% 30.10 in 10.0 mi SSW 9.2 mph 16.1 mph N/A   Partly Cloudy
4:35 PM 68.0 °F 57.2 °F 68% 30.09 in 10.0 mi SSW 10.4 mph 19.6 mph N/A   Partly Cloudy
4:55 PM 69.8 °F 57.2 °F 64% 30.09 in 10.0 mi South 9.2 mph - N/A   Clear
5:15 PM 69.8 °F 57.2 °F 64% 30.09 in 10.0 mi South 10.4 mph 17.3 mph N/A   Clear
5:35 PM 68.0 °F 57.2 °F 68% 30.08 in 10.0 mi SSW 10.4 mph 16.1 mph N/A   Clear
5:55 PM 66.2 °F 55.4 °F 68% 30.08 in 10.0 mi South 4.6 mph - N/A   Clear
6:15 PM 66.2 °F 55.4 °F 68% 30.08 in 10.0 mi South 4.6 mph - N/A   Clear
6:35 PM 64.4 °F 53.6 °F 68% 30.08 in 10.0 mi South 10.4 mph - N/A   Clear
6:55 PM 64.4 °F 53.6 °F 68% 30.08 in 10.0 mi South 6.9 mph - N/A   Clear
7:15 PM 64.4 °F 51.8 °F 64% 30.08 in 10.0 mi SSW 10.4 mph - N/A   Clear
7:35 PM 62.6 °F 51.8 °F 68% 30.08 in 10.0 mi South 6.9 mph - N/A   Clear
7:55 PM 62.6 °F 51.8 °F 68% 30.08 in 10.0 mi South 9.2 mph - N/A   Clear
8:15 PM 60.8 °F 51.8 °F 72% 30.08 in 10.0 mi South 6.9 mph - N/A   Clear
8:35 PM 60.8 °F 51.8 °F 72% 30.08 in 10.0 mi South 4.6 mph - N/A   Clear
8:55 PM 60.8 °F 53.6 °F 77% 30.08 in 10.0 mi South 4.6 mph - N/A   Clear
9:35 PM 59.0 °F 53.6 °F 82% 30.07 in 10.0 mi SSW 4.6 mph - N/A   Clear
9:55 PM 59.0 °F 53.6 °F 82% 30.06 in 10.0 mi South 4.6 mph - N/A   Clear
10:15 PM 59.0 °F 53.6 °F 82% 30.07 in 10.0 mi SSW 5.8 mph - N/A   Clear
10:35 PM 59.0 °F 53.6 °F 82% 30.06 in 10.0 mi SSW 5.8 mph - N/A   Clear
10:55 PM 59.0 °F 55.4 °F 88% 30.06 in 10.0 mi SSW 4.6 mph - N/A   Clear
11:15 PM 57.2 °F 55.4 °F 94% 30.05 in 10.0 mi SSW 5.8 mph - N/A   Clear
11:35 PM 57.2 °F 55.4 °F 94% 30.05 in 10.0 mi SSW 5.8 mph - N/A   Clear
11:55 PM 57.2 °F 55.4 °F 94% 30.04 in 10.0 mi South 3.5 mph - N/A   Clear